Location: Cedar Falls
(42.5280°N, 92.4450°W)
Time: 22:36:06
(UTC-06:00)

NOSS 3-1 (C) - Visible Passes

Search period start: 12 February 2016 00:00
Search period end: 22 February 2016 00:00
Orbit: 861 x 1348 km, 63.4° (Epoch: 20 January)

Date Brightness Start Highest point End Pass type
(mag) Time Alt. Az. Time Alt. Az. Time Alt. Az.
12 Feb 3.9 05:29:34 10° SSW 05:35:22 63° ESE 05:41:48 10° NE visible
13 Feb 4.7 04:45:01 10° S 04:50:22 38° ESE 04:56:12 10° NE visible
13 Feb 3.9 06:35:23 10° WSW 06:41:06 43° NW 06:47:27 10° NNE visible
14 Feb 5.4 04:02:01 14° SSE 04:05:31 22° ESE 04:10:13 10° ENE visible
14 Feb 3.5 05:49:43 10° SW 05:55:38 65° NW 06:02:14 10° NNE visible
15 Feb 5.9 03:19:12 11° ESE 03:20:47 12° ESE 03:23:04 10° E visible
15 Feb 3.4 05:06:41 25° SSW 05:10:21 82° ESE 05:16:56 10° NE visible
16 Feb 4.1 04:23:37 40° SSE 04:25:15 50° ESE 04:31:27 10° NE visible
16 Feb 4.2 06:11:04 11° WSW 06:16:20 35° NW 06:22:27 10° NNE visible
17 Feb 4.9 03:40:24 30° ESE 03:40:24 30° ESE 03:45:43 10° NE visible
17 Feb 3.7 05:27:51 29° WSW 05:30:46 51° NW 05:37:16 10° NNE visible
18 Feb 5.8 02:57:03 16° E 02:57:03 16° E 02:59:23 10° ENE visible
18 Feb 3.3 04:44:29 65° WSW 04:45:23 79° NW 04:52:01 10° NE visible
18 Feb 4.9 06:32:41 10° WNW 06:37:26 22° NNW 06:42:36 10° NNE visible
19 Feb 3.8 04:01:00 59° E 04:01:00 59° E 04:06:38 10° NE visible
19 Feb 4.5 05:48:26 19° W 05:51:36 29° NW 05:57:26 10° NNE visible
20 Feb 5.1 03:17:28 29° ENE 03:17:28 29° ENE 03:21:03 10° NE visible
20 Feb 3.9 05:04:52 38° WNW 05:05:56 41° NW 05:12:15 10° NNE visible
21 Feb 6.0 02:33:50 15° ENE 02:33:50 15° ENE 02:35:07 10° ENE visible
21 Feb 3.7 04:21:15 57° NNW 04:21:15 57° NNW 04:27:03 10° NNE visible
21 Feb 5.1 06:08:40 11° WNW 06:12:51 19° NNW 06:17:36 10° NNE visible
